This demonstration page uses our WeatherBlox Daily Observations layout. Learn more.

Left ArrowRight Arrow

34.16533, -84.80231

Hourly Observations for October 25, 2015

Temp ( °F °C ) Dew Point ( °F °C ) Humidity (%) Winds ( mph kmh ) Pressure ( in mb ) Visibility ( mi km ) Precip ( " mm )
12:53 am 00:53 Clear 63 17.2 59 15 87 87 E 7 11 30.11 1020 10 16 0.00 0.00
1:53 am 01:53 Clear 63 17.2 59 15 87 87 ENE 6 9 30.11 1020 10 16 0.00 0.00
2:53 am 02:53 Clear 62 16.7 59 15 90 90 ENE 5 7 30.13 1020 N/A 0.00 0.00
3:53 am 03:53 Clear 61 16.1 58 14.4 90 90 E 6 9 30.14 1021 N/A 0.00 0.00
4:53 am 04:53 Clear 60 15.6 58 14.4 93 93 ENE 5 7 30.13 1020 N/A 0.00 0.00
5:17 am 05:17 Partly Cloudy 60 15.6 58 14.4 93 93 VRB 5 7 30.15 1021 N/A 0.00 0.00
5:25 am 05:25 Mostly Cloudy 60 15.6 58 14.4 93 93 ENE 7 11 30.12 1020 N/A 0.00 0.00
5:53 am 05:53 Cloudy 61 16.1 59 15 93 93 E 6 9 30.14 1021 N/A 0.00 0.00
6:53 am 06:53 Cloudy 61 16.1 59 15 93 93 E 5 7 30.15 1021 N/A 0.00 0.00
7:15 am 07:15 Cloudy 61 16.1 60 15.6 97 97 E 5 7 30.15 1021 N/A 0.00 0.00
7:38 am 07:38 Cloudy 61 16.1 60 15.6 97 97 VRB 3 6 30.15 1021 N/A 0.00 0.00
7:53 am 07:53 Cloudy 61 16.1 60 15.6 97 97 E 5 7 30.15 1021 N/A 0.00 0.00
8:53 am 08:53 Cloudy 62 16.7 60 15.6 93 93 ENE 5 7 30.16 1021 N/A 0.00 0.00
9:39 am 09:39 Cloudy 63 17.2 61 16.1 93 93 Calm 30.18 1022 N/A 0.00 0.00
9:53 am 09:53 Cloudy 63 17.2 61 16.1 93 93 ESE 6 9 30.18 1022 N/A 0.00 0.00
10:53 am 10:53 Cloudy 65 18.3 62 16.7 90 90 ENE 7 11 30.19 1022 N/A 0.00 0.00
11:53 am 11:53 Cloudy 66 18.9 62 16.7 87 87 SE 3 6 30.19 1022 N/A 0.00 0.00
12:06 pm 12:06 Cloudy 67 19.4 62 16.7 84 84 E 3 6 30.18 1022 N/A 0.00 0.00
12:53 pm 12:53 Mostly Cloudy 68 20 62 16.7 81 81 ENE 3 6 30.16 1022 N/A 0.00 0.00
1:25 pm 13:25 Partly Cloudy 69 20.6 63 17.2 81 81 Calm 30.15 1021 N/A 0.00 0.00
1:53 pm 13:53 Partly Cloudy 70 21.1 63 17.2 79 79 VRB 3 6 30.13 1020 N/A 0.00 0.00
2:53 pm 14:53 Mostly Sunny 71 21.7 62 16.7 73 73 ENE 3 6 30.10 1019 N/A 0.00 0.00
3:53 pm 15:53 Sunny 71 21.7 63 17.2 76 76 Calm 30.10 1019 N/A 0.00 0.00
4:53 pm 16:53 Sunny 71 21.7 64 17.8 79 79 Calm 30.10 1019 N/A 0.00 0.00
5:53 pm 17:53 Sunny 69 20.6 65 18.3 87 87 Calm 30.09 1019 N/A 0.00 0.00
6:53 pm 18:53 Sunny 67 19.4 65 18.3 93 93 Calm 30.10 1019 N/A 0.00 0.00
7:53 pm 19:53 Clear 64 17.8 63 17.2 96 96 Calm 30.11 1020 N/A 0.00 0.00
8:53 pm 20:53 Partly Cloudy 64 17.8 63 17.2 96 96 Calm 30.14 1021 N/A 0.00 0.00
9:01 pm 21:01 Mostly Cloudy 64 17.8 63 17.2 96 96 Calm 30.12 1020 N/A 0.00 0.00
9:11 pm 21:11 Partly Cloudy 64 17.8 63 17.2 96 96 Calm 30.12 1020 N/A 0.00 0.00
9:53 pm 21:53 Clear 64 17.8 63 17.2 96 96 Calm 30.12 1020 N/A 0.00 0.00
10:53 pm 22:53 Clear 63 17.2 62 16.7 97 97 NNE 6 9 30.11 1020 N/A 0.00 0.00
11:53 pm 23:53 Clear 62 16.7 61 16.1 96 96 SSE 3 6 30.10 1019 N/A 0.00 0.00

Powered by AerisWeather